Flag for Germany Weather past 2 weeks in Warendorf, North Rhine-Westphalia, Germany

Now
50 °F

Light rain. Passing clouds.


Feels Like: 44 °F
Forecast: 40 / 47 °F
Wind: 16 mph from Southwest

Location: Muenster / Osnabrueck

Current Time: Dec 23, 2014 at 1:54:11 AM

Latest Report: Dec 23, 2014 at 1:20 AM


Visibility: N/A

Pressure: 29.98 "Hg

Humidity: 94%

Dew point: 48 °F

Location of WarendorfLocation

Historic Weather in Warendorf — Graph

°F

Warendorf temperature yesterday

Maximum temperature yesterday: 54 °F (at 6:20 PM)
Minimum temperature yesterday: 46 °F (at 1:20 AM)
Average temperature yesterday: 50 °F

Past Weeks' High & Low Weather Summary

 TemperatureHumidityPressure
High55 °F (Dec 18, 6:20 PM)100% (Dec 14, 1:20 AM)30.36 "Hg (Dec 14, 1:20 AM)
Low34 °F (Dec 14, 1:20 AM)70% (Dec 10, 4:50 AM)29.33 "Hg (Dec 12, 12:50 PM)
Average43 °F89%29.89 "Hg
* Reported Dec 8 12:20 AM — Dec 23 12:20 AM, Warendorf, Weather by CustomWeather, © 2014

Note: Actual official high and low records may vary slightly from our data, if they occured in-between our weather recording intervals... More about our weather records

Advertising

Warendorf weather history for previous 24 hours

 ConditionsComfort  
Time TempWeatherWind HumidityBarometerVisibility
12:20 AM
Dec 23
52 °FLight rain. Partly cloudy.20 mph88%29.98 "HgN/A
11:50 PM
Dec 22
54 °FPartly cloudy.21 mph82%29.95 "HgN/A
11:20 PM52 °FLight rain. Partly cloudy.18 mph88%29.95 "HgN/A
10:20 PM54 °FLight rain. Partly cloudy.23 mph88%29.95 "HgN/A
9:50 PM52 °FLight rain. Partly cloudy.21 mph94%29.95 "HgN/A
9:20 PM52 °FLight rain. Partly cloudy.22 mph94%29.95 "HgN/A
8:50 PM52 °FLight rain. Partly cloudy.17 mph94%29.95 "HgN/A
8:20 PM52 °FLight rain. Passing clouds.20 mph94%29.95 "HgN/A
7:50 PM52 °FLight rain. Passing clouds.18 mph94%29.95 "HgN/A
7:20 PM52 °FLight rain. Passing clouds.15 mph94%29.95 "HgN/A
6:50 PM52 °FLight rain. Passing clouds.17 mph94%29.95 "HgN/A
6:20 PM54 °FLight rain. Passing clouds.20 mph82%29.95 "HgN/A
5:50 PM52 °FPassing clouds.20 mph94%29.95 "HgN/A
5:20 PM52 °FLight rain. Partly cloudy.20 mph94%29.95 "Hg5 mi
4:50 PM52 °FLight rain. Passing clouds.18 mph94%29.95 "Hg5 mi
4:20 PM52 °FLight rain. Passing clouds.18 mph88%29.95 "Hg6 mi
3:50 PM52 °FLight rain. Partly sunny.20 mph88%29.95 "HgN/A
3:20 PM52 °FDrizzle. Broken clouds.18 mph88%29.95 "HgN/A
2:50 PM50 °FDrizzle. Broken clouds.18 mph94%29.92 "HgN/A
2:20 PM50 °FDrizzle. Broken clouds.16 mph94%29.95 "HgN/A
1:50 PM50 °FDrizzle. Broken clouds.17 mph94%29.95 "HgN/A
1:20 PM48 °FDrizzle. Fog.18 mph100%29.95 "Hg3 mi
12:50 PM50 °FDrizzle. Broken clouds.22 mph88%29.98 "Hg4 mi
12:20 PM48 °FDrizzle. Broken clouds.21 mph94%29.95 "Hg4 mi
11:50 AM48 °FDrizzle. Broken clouds.21 mph94%29.95 "Hg4 mi
11:20 AM48 °FDrizzle. Fog.23 mph94%29.98 "Hg3 mi
10:50 AM48 °FDrizzle. Fog.23 mph94%29.98 "Hg3 mi
10:20 AM48 °FDrizzle. Fog.21 mph94%29.95 "Hg3 mi
9:50 AM48 °FDrizzle. Fog.23 mph94%29.98 "Hg3 mi
9:20 AM48 °FDrizzle. Broken clouds.22 mph94%29.98 "Hg4 mi
8:50 AM48 °FDrizzle. Partly sunny.23 mph94%29.98 "Hg4 mi
8:20 AM48 °FPartly cloudy.21 mph94%29.98 "Hg4 mi
7:50 AM48 °FPartly cloudy.21 mph94%29.98 "Hg5 mi
7:20 AM48 °FPartly cloudy.21 mph94%29.98 "Hg5 mi
6:50 AM48 °FPartly cloudy.21 mph94%29.98 "Hg5 mi
6:20 AM48 °FPartly cloudy.22 mph94%29.98 "Hg6 mi
5:50 AM48 °FPassing clouds.21 mph94%29.98 "Hg6 mi
5:20 AM48 °FPassing clouds.20 mph94%29.98 "HgN/A
4:50 AM48 °FPassing clouds.20 mph94%29.98 "HgN/A
4:20 AM48 °FPassing clouds.21 mph94%30.01 "Hg6 mi
3:50 AM48 °FPassing clouds.21 mph94%30.01 "Hg6 mi
3:20 AM48 °FLight rain. Passing clouds.21 mph87%30.01 "HgN/A
2:50 AM48 °FPassing clouds.21 mph87%30.04 "HgN/A
2:20 AM46 °FPassing clouds.23 mph93%30.04 "HgN/A
1:50 AM46 °FLight rain. Passing clouds.22 mph93%30.04 "Hg5 mi
1:20 AM46 °FLight rain. Partly cloudy.21 mph93%30.04 "HgN/A
Weather by CustomWeather, © 2014

See weather overviewHow to use our weather pages